Theta_e
303 304 305 305 305 306 308 306 305 307 306 306 306 305 305 304 304 304 305 311 312 310 310 311 324 322 311 313 312 314 311 312 314 316 317 317 315 319 319 321 324 332 333 343 345
302 304 306 306 307 306 307 308 306 305 305 306 305 305 304 304 304 304 310 308 308 308 310 311 310 323 312 312 312 312 310 313 313 314 316 316 316 317 318 318 324 330 337 344 345
304 307 307 310 307 308 308 308 308 307 306 305 304 304 304 304 304 306 309 309 308 307 310 311 311 311 310 311 312 311 312 313 315 316 316 316 317 318 318 318 321 322 332 339 345
308 310 311 309 310 310 309 309 309 308 307 307 307 307 306 305 303 308 314 309 307 308 309 309 311 312 309 310 312 311 312 314 315 316 315 315 317 316 318 318 319 320 320 321 337
311 312 312 311 311 311 310 311 310 309 308 307 308 305 306 306 304 316 315 313 306 307 310 310 311 311 310 310 311 311 312 313 314 315 315 315 314 314 316 318 319 319 319 320 320
312 313 313 312 312 312 311 310 311 310 309 308 308 305 305 306 305 309 314 314 307 306 308 310 311 313 312 311 311 312 312 313 313 314 314 314 314 315 317 318 318 319 319 319 319
311 312 313 312 312 312 311 310 310 311 309 308 309 306 307 305 310 317 316 312 309 307 307 309 310 313 314 310 313 313 313 312 312 314 313 314 314 313 318 318 318 319 319 319 319
311 311 311 311 311 311 310 310 311 311 310 309 309 309 310 310 310 315 313 308 305 309 309 310 311 314 315 314 313 313 311 314 314 313 315 315 315 315 318 317 317 318 318 318 319
310 310 310 311 311 310 310 309 311 311 310 307 308 310 311 315 313 315 314 309 306 309 310 310 309 312 314 312 311 310 313 313 315 313 314 314 314 314 317 316 316 318 318 319 319
310 309 309 310 310 310 309 309 311 310 309 309 311 313 313 317 314 316 313 312 310 310 310 309 311 311 309 310 311 312 313 313 314 314 314 313 312 312 315 316 316 317 317 317 318
309 307 308 309 309 309 309 310 312 313 310 311 312 314 317 319 317 316 314 312 312 311 311 311 311 312 313 313 313 313 313 314 313 313 314 312 312 312 314 315 315 317 316 315 318
308 307 309 309 309 309 309 310 313 314 316 310 311 312 312 314 317 314 315 314 313 311 311 311 312 312 313 313 313 313 314 313 312 312 312 313 313 312 312 314 315 316 317 316 317
307 308 309 308 308 310 312 311 312 313 313 316 314 312 316 319 319 315 314 314 312 310 311 312 314 313 313 313 314 313 313 313 313 313 313 314 313 313 314 314 316 315 316 319 318
306 308 308 309 312 315 314 315 313 314 319 319 319 317 319 320 319 317 315 315 313 311 309 312 312 313 314 314 313 314 313 314 315 314 314 312 313 312 313 312 312 318 321 322 322
306 307 309 310 311 313 315 315 315 313 324 320 318 318 320 317 316 311 314 313 315 313 311 312 314 314 314 313 313 314 314 314 314 312 312 312 311 311 311 314 314 317 318 320 320
306 309 311 312 314 315 315 314 314 319 329 319 318 319 316 316 317 312 312 314 316 314 313 313 315 315 315 316 315 315 313 310 308 309 312 312 311 311 312 315 319 317 316 319 321
307 312 313 314 316 314 314 314 319 324 325 324 317 316 317 316 317 315 312 314 314 315 315 314 315 314 315 315 317 313 310 312 313 313 314 313 315 312 314 319 318 315 316 317 320
311 314 315 315 315 315 315 316 324 326 325 324 318 317 318 317 317 317 313 314 314 313 312 314 315 317 318 317 317 317 311 311 315 313 313 315 317 315 320 317 318 318 319 319 318
313 316 317 316 316 316 315 319 323 326 324 326 318 318 320 321 317 317 317 316 318 315 317 316 320 318 318 317 317 319 318 312 314 315 319 316 315 318 319 319 319 319 320 321 321
314 320 319 316 316 317 318 323 324 323 323 323 322 321 323 321 320 319 321 320 320 317 315 318 320 318 319 317 315 317 316 319 315 319 321 316 318 316 321 319 316 314 315 316 317
314 319 320 318 316 320 320 323 323 321 322 321 320 320 320 320 319 319 320 318 318 316 315 315 315 318 316 316 316 314 314 314 314 314 316 319 317 313 318 317 316 312 314 314 315
312 317 319 317 317 319 320 322 323 323 318 319 317 318 319 318 319 319 320 319 317 316 317 315 314 317 317 311 312 313 316 312 313 317 317 321 319 317 314 315 314 313 313 314 315
312 314 319 318 321 322 321 322 321 317 316 316 316 317 316 316 318 318 318 316 317 316 316 313 311 312 309 310 311 314 316 313 311 310 318 317 315 315 313 312 312 312 313 315 316
311 317 315 318 317 317 321 321 317 315 313 313 313 314 314 314 311 317 317 316 316 317 316 313 310 311 310 306 311 314 314 313 310 314 311 312 314 314 313 312 311 313 313 312 311
313 312 311 315 312 313 312 312 317 315 314 313 313 313 313 314 313 313 314 315 315 314 310 308 311 312 312 312 312 312 312 312 311 310 312 312 313 311 310 309 311 312 311 310 310
311 310 312 312 313 313 312 315 315 313 313 314 313 312 311 312 312 312 311 312 314 312 310 306 310 312 314 312 312 313 312 311 311 311 310 311 312 310 310 310 309 309 310 310 309
310 312 311 312 312 313 313 314 314 311 311 312 311 310 311 310 311 311 311 310 311 311 309 308 309 309 312 311 310 310 309 309 309 309 309 311 309 313 313 312 311 310 310 310 309
Wind_Speed
17 16 17 16 17 15 14 13 10 11 12 11 12 11 12 13 16 21 31 30 31 13 21 20 31 25 18 11 12 3 3 3 5 5 4 2 7 7 14 7 2 4 5 5 19
16 16 16 17 15 15 14 13 10 10 10 10 11 10 11 12 16 26 31 29 19 21 16 21 29 34 16 9 6 5 4 9 6 5 2 6 5 8 7 14 4 7 5 12 18
16 16 16 14 17 14 13 12 12 9 9 8 9 9 9 8 13 30 19 22 23 29 21 19 25 24 11 11 9 5 4 6 5 10 0 5 14 6 4 4 3 5 7 10 20
17 16 16 15 16 14 12 12 12 9 9 9 9 8 8 7 6 4 8 19 30 32 27 21 23 15 6 6 9 3 9 8 8 5 3 5 5 8 9 10 16 5 4 6 10
18 17 16 15 15 15 13 12 11 11 8 9 8 7 6 7 14 4 4 13 35 35 32 25 24 11 6 8 6 4 3 8 19 16 15 15 9 9 15 22 17 15 8 9 12
18 18 17 15 15 16 15 14 12 12 9 7 7 7 8 5 8 7 5 16 35 35 34 30 18 16 10 5 8 8 13 17 13 17 10 5 14 8 11 18 17 18 14 11 12
18 18 17 17 16 16 17 17 14 11 10 7 6 6 12 21 5 6 5 9 32 34 34 31 11 19 8 4 6 4 3 4 7 12 8 10 7 6 17 18 19 19 20 17 17
19 18 17 17 16 18 18 18 13 11 10 8 7 6 11 4 13 6 11 18 30 28 25 23 13 9 2 3 3 4 3 1 4 6 4 11 6 6 10 10 12 16 20 22 21
20 19 18 17 17 19 19 14 10 9 8 8 7 6 11 6 13 11 13 17 26 23 12 16 14 3 3 5 3 5 2 3 4 5 3 3 4 7 12 12 12 16 21 25 26
22 21 20 18 18 19 16 8 5 7 7 7 8 5 9 4 12 14 14 14 17 19 9 8 7 4 2 3 6 6 4 3 4 2 2 2 6 8 8 6 10 18 20 22 23
23 23 21 20 19 20 11 3 5 4 14 11 6 4 2 3 12 13 15 20 15 14 5 6 4 6 6 6 5 5 3 3 3 4 2 5 5 10 11 9 11 14 15 16 18
23 22 21 22 21 22 14 11 9 2 5 22 19 16 17 12 4 13 17 10 6 4 4 5 4 6 4 5 4 2 2 4 6 5 5 6 6 7 7 7 7 12 16 13 14
22 22 22 25 22 20 14 20 7 2 3 4 18 14 10 8 6 13 20 9 5 4 4 6 2 8 5 4 4 3 4 4 7 3 2 3 5 3 3 5 8 9 11 13 15
24 22 26 22 10 7 3 4 15 6 0 4 5 6 9 6 1 11 20 11 2 7 7 3 3 4 4 3 6 2 8 9 6 4 3 2 4 4 3 7 5 14 18 17 17
24 26 21 14 7 4 2 6 16 6 2 8 4 5 12 8 8 7 23 12 6 5 6 5 2 4 3 6 5 8 3 4 4 4 3 2 2 6 2 4 4 10 20 19 17
28 20 15 7 5 1 4 15 15 1 2 3 7 6 6 4 2 7 10 11 5 5 3 6 1 2 4 3 3 1 4 7 5 3 1 4 5 4 2 3 5 7 16 18 16
25 13 9 5 4 3 17 12 1 2 2 5 3 5 6 5 3 4 6 5 5 4 2 2 1 2 1 3 3 5 6 3 3 2 5 1 1 7 3 4 3 5 19 21 18
18 7 5 5 4 7 11 1 2 2 2 2 3 6 4 5 2 3 7 4 2 5 3 5 3 3 1 3 7 2 6 5 6 4 4 2 5 3 2 6 12 18 20 24 27
15 5 4 5 5 10 4 2 2 1 7 6 7 5 3 3 3 4 3 5 2 3 5 4 2 3 6 3 3 3 2 3 6 4 2 3 5 2 3 4 9 14 15 12 13
14 4 4 6 3 7 2 1 3 1 7 8 2 1 4 3 4 4 4 1 3 0 0 3 3 3 3 1 8 4 4 4 3 4 4 4 4 4 4 3 4 9 15 16 14
7 2 2 13 12 4 3 2 4 12 15 4 2 2 3 4 4 2 2 1 2 3 6 3 3 2 1 4 2 4 2 5 4 4 4 1 5 5 7 4 4 7 22 25 19
7 1 5 12 2 2 2 3 11 14 3 6 4 3 3 3 4 2 4 2 4 3 4 0 4 3 2 6 2 1 3 4 4 4 2 2 6 2 6 2 6 12 25 28 22
13 4 4 12 2 2 4 5 5 1 3 3 3 3 3 3 4 3 5 7 7 4 6 5 2 3 4 5 4 5 2 4 5 3 5 4 5 1 8 8 12 11 28 24 17
5 2 1 8 1 1 3 5 2 6 4 6 4 5 5 5 7 3 3 6 5 5 9 7 3 4 6 3 3 1 2 2 5 3 3 6 5 6 10 13 20 28 11 7 8
2 2 2 2 0 1 5 3 2 3 3 7 5 4 5 4 3 4 3 3 6 4 5 4 3 2 2 3 3 5 7 6 8 6 7 4 11 8 10 10 18 10 3 1 5
5 4 6 4 5 2 1 1 2 4 3 2 6 1 3 5 5 7 5 2 3 3 3 3 3 2 2 3 5 5 9 9 9 10 8 13 16 12 21 8 4 4 2 4 8
8 4 4 5 4 1 2 1 2 6 8 6 9 5 5 5 7 9 6 8 7 6 3 4 5 3 3 1 4 6 7 9 5 6 6 6 7 4 4 3 3 7 6 8 11
Wind_Direction
320 323 325 332 330 341 345 331 326 297 271 264 256 248 246 246 246 240 233 224 222 226 207 200 196 234 240 234 232 238 82 201 219 175 223 315 20 344 338 311 327 240 267 245 176
320 321 321 327 324 329 338 337 330 313 287 266 255 246 243 247 254 248 224 219 212 192 196 193 177 195 215 215 217 202 147 217 197 214 166 318 326 334 346 336 54 111 150 174 190
321 320 321 319 320 320 327 337 328 320 305 282 260 245 244 252 274 258 241 218 206 200 192 182 180 172 181 177 196 197 223 187 237 236 255 329 316 332 319 323 51 79 115 176 194
322 318 319 315 316 320 320 324 324 315 305 294 275 254 241 225 208 170 175 203 190 186 176 165 168 165 153 179 193 206 217 236 254 253 211 179 287 313 268 262 302 258 197 180 191
320 316 318 314 311 316 318 313 314 307 299 293 288 267 231 231 247 205 196 186 184 186 190 179 169 151 169 183 154 188 232 225 244 263 277 283 228 241 263 279 296 273 226 192 191
317 312 310 312 311 308 314 310 301 296 288 284 289 274 230 250 246 233 212 191 188 184 186 195 189 171 168 177 172 207 213 235 262 268 250 241 285 165 278 284 284 264 249 238 227
323 315 308 307 311 309 311 309 294 279 275 258 269 267 253 242 260 203 170 197 187 185 185 192 176 181 160 149 215 214 220 276 220 237 230 228 284 208 276 275 274 264 252 252 253
328 323 315 310 312 310 312 308 283 263 264 249 240 252 258 273 221 182 166 171 176 179 190 182 170 153 195 114 56 155 50 70 263 166 238 163 259 273 260 263 271 276 272 266 260
330 327 320 315 313 311 317 303 271 245 247 235 237 240 265 225 209 183 171 171 172 177 139 187 189 203 141 131 41 3 194 193 286 209 136 137 244 267 294 287 275 294 275 266 267
329 327 320 316 313 312 321 297 229 222 202 199 220 267 250 193 191 179 159 170 152 174 166 155 170 138 86 121 191 188 196 240 212 147 57 134 247 272 313 314 296 307 295 261 256
329 325 320 315 313 310 313 148 170 197 202 203 210 230 58 58 184 187 166 140 140 155 155 191 120 192 178 174 157 154 164 221 237 261 8 265 264 276 290 301 294 314 326 266 248
330 324 319 315 310 303 284 211 213 185 271 232 238 260 270 296 198 189 180 165 141 155 119 66 199 207 146 136 141 137 183 254 289 246 152 274 262 276 282 260 280 320 343 317 280
330 322 317 313 306 298 262 222 200 222 233 219 225 243 251 172 181 185 180 168 127 126 156 143 238 147 146 141 152 182 175 226 228 7 269 341 308 327 314 302 324 356 351 333 318
329 322 318 311 310 305 242 155 199 208 33 188 218 229 183 168 218 191 190 160 114 170 145 183 228 153 143 192 154 239 210 218 243 113 218 67 275 306 294 311 333 346 356 348 334
329 324 314 308 275 274 287 168 184 190 132 153 167 174 170 168 147 178 184 175 144 147 106 241 132 119 144 211 151 222 149 221 182 157 115 355 44 265 308 277 320 349 353 348 340
329 325 309 295 258 155 191 139 150 192 177 203 138 155 129 179 123 123 160 169 142 106 69 205 268 140 185 105 180 54 106 48 52 86 45 224 170 281 246 332 318 9 23 22 12
331 315 289 223 137 18 149 151 78 189 293 147 134 139 141 149 137 118 141 118 141 118 133 12 252 279 177 130 26 74 61 359 347 0 221 33 48 236 305 359 21 53 48 51 53
334 310 254 211 165 152 159 57 215 6 172 278 119 121 132 127 118 135 123 136 124 107 122 160 322 337 103 164 169 104 150 160 202 198 242 313 237 233 73 97 89 77 66 60 55
337 303 244 194 191 163 194 55 278 35 249 318 108 116 96 40 88 86 74 142 69 172 140 140 157 313 49 41 77 170 85 154 101 20 55 250 299 15 100 52 48 47 40 29 25
336 312 173 194 181 177 89 271 335 12 308 313 76 96 133 155 116 109 139 241 122 354 99 172 110 355 340 41 38 98 147 71 12 147 232 272 269 220 173 137 9 22 7 356 360
341 319 168 171 180 214 149 164 326 231 231 213 143 87 106 137 90 86 96 40 106 71 71 112 108 248 28 32 127 20 52 54 113 142 183 235 249 215 174 166 4 334 351 342 329
5 332 153 165 102 107 82 182 210 264 221 239 102 78 74 74 83 95 126 116 113 110 77 38 123 108 95 309 234 131 141 128 126 218 197 222 275 193 155 301 302 316 333 330 322
339 295 154 185 187 239 182 230 233 206 34 67 65 68 69 85 89 67 78 15 46 88 154 181 37 70 8 356 13 81 48 101 102 75 207 170 254 249 294 306 322 321 328 320 306
343 318 60 193 196 212 47 301 223 61 54 65 87 74 82 65 27 111 83 13 21 79 80 92 88 149 191 179 154 258 189 148 113 157 230 227 266 299 305 314 315 312 340 71 63
347 306 2 282 265 252 188 260 172 84 70 40 37 57 135 106 67 98 90 113 30 18 49 90 133 160 240 194 187 217 235 199 194 196 200 227 237 234 246 255 271 273 194 32 20
5 2 341 281 294 245 192 283 134 131 34 47 113 48 86 133 171 181 130 132 175 44 72 14 144 126 269 229 221 252 249 223 217 228 245 250 268 249 262 252 209 197 230 317 340
1 328 318 302 331 62 232 180 130 129 47 77 135 97 75 142 110 119 106 132 154 142 120 106 133 119 248 222 294 270 231 210 208 205 186 215 232 193 178 219 253 247 268 307 320